Location: Northwest Suburban Astronomers
(42.1100°N, 88.0300°W)
Time: 00:27:00
(UTC-05:00)

Daily predictions for brighter satellites

Satellite Brightness Start Highest point End
(mag) Time Altitude Azimuth Time Altitude Azimuth Time Altitude Azimuth
Cosmos 1689 Rocket 4.2 00:07:53 28° NNE 00:07:53 28° NNE 00:09:46 10° N
ALOS 2 2.8 00:09:34 64° ENE 00:09:34 64° ENE 00:13:46 10° N
CZ-4B R/B 2.6 00:11:20 44° NNE 00:11:20 44° NNE 00:14:10 10° N
ISS -0.4 00:08:51 10° NW 00:11:08 17° N 00:13:24 10° NE
Cosmos 1697 Rocket 3.6 00:05:56 10° N 00:11:16 40° ENE 00:13:02 32° E
Cosmos 1818 3.6 00:09:31 10° NW 00:14:55 61° WSW 00:15:06 60° SW
CENTAUR R/B 3.2 00:16:44 36° ESE 00:16:44 36° ESE 00:22:36 10° NE
Cosmos 2082 Rocket 2.2 00:16:38 60° ESE 00:16:52 61° ESE 00:22:28 10° NNE
Cosmos 1833 Rocket 3.1 00:17:26 47° ESE 00:17:26 47° ESE 00:22:46 10° NE
Landsat 5 3.9 00:18:23 55° NE 00:18:23 55° NE 00:21:54 10° N
H-2A R/B 2.9 00:15:16 10° NNE 00:18:16 53° NNE 00:18:16 53° NNE
Cosmos 1656 3.8 00:20:25 10° NNW 00:26:07 67° ENE 00:27:07 56° ESE
Cosmos 1743 Rocket 3.7 00:28:38 75° NNW 00:28:38 75° NNW 00:32:46 10° N
Cosmos 1378 4.3 00:31:15 39° NW 00:31:15 39° NW 00:34:14 10° N
Cosmos 1553 Rocket 4.2 00:24:56 10° NNW 00:31:11 62° W 00:32:33 51° SW
Meteor 2-2 Rocket 4.4 00:27:32 10° N 00:33:16 66° ENE 00:34:11 57° SE
NOSS 3-2 (C) 4.3 00:30:29 21° WSW 00:34:31 50° NW 00:41:05 10° NNE
Lacrosse 5 rocket 3.5 00:31:31 10° NNW 00:35:07 26° NNE 00:38:02 14° E
Cosmos 1437 Rocket 4.0 00:33:50 10° N 00:36:49 34° NE 00:36:49 34° NE
Cosmos 1674 4.2 00:38:42 31° NE 00:38:42 31° NE 00:41:06 10° NNE
Cosmos 841 Rocket 3.4 00:32:28 10° NNW 00:37:45 80° WSW 00:37:57 78° SW
Cosmos 2221 4.4 00:34:45 10° NW 00:37:48 20° W 00:37:48 20° W
Cosmos 724 4.1 00:37:43 67° SSW 00:38:35 90° NNW 00:44:30 10° NNE
Cosmos 1354 Rocket 3.9 00:41:30 75° SW 00:41:55 83° WNW 00:47:15 10° NNE
CZ-2C R/B 3.2 00:37:31 10° NNE 00:42:47 44° E 00:43:03 44° ESE
Cosmos 1500 Rocket 3.7 00:44:59 68° NNW 00:44:59 68° NNW 00:48:49 10° N
Cosmos 1503 Rocket 3.9 00:45:25 73° SW 00:45:52 80° WNW 00:51:13 10° NNE
Cosmos 1328 Rocket 4.1 00:43:18 10° NNW 00:47:05 50° WNW 00:47:05 50° WNW
Cosmos 1867 4.4 00:49:21 32° W 00:51:23 46° NW 00:56:40 10° NNE
Meteor 2-20 4.5 00:52:00 57° SW 00:53:12 71° W 00:59:23 10° N
Cosmos 2266 Rocket 4.1 00:53:45 56° SW 00:55:08 74° W 01:01:34 10° N
In-Cosmos 22 4.4 00:57:00 54° WSW 00:57:50 61° WNW 01:03:29 10° N
SL-16 R/B 4.1 00:55:03 10° N 00:59:41 25° NE 01:03:55 11° ESE
Cosmos 2315 Rocket 3.9 00:54:48 10° N 01:01:09 84° E 01:02:23 60° SSE
Lacrosse 5 1.7 00:57:55 10° NW 01:02:51 83° W 01:02:51 83° W
Cosmos 1515 Rocket 4.4 01:00:30 10° NNW 01:04:15 42° WNW 01:04:15 42° WNW
Cosmos 2058 4.0 01:05:34 37° ENE 01:05:34 37° ENE 01:08:53 10° NNE
Cosmos 783 Rocket 4.5 01:00:43 10° NNW 01:06:02 75° ENE 01:06:36 67° ESE
Cosmos 2322 Rocket 3.7 01:04:15 10° N 01:09:12 30° NE 01:12:46 16° ESE
Helios 1A Rocket 3.7 01:05:59 10° N 01:09:32 44° NW 01:09:32 44° NW
MOS 1-B Rocket 4.3 01:07:31 46° SSE 01:09:57 82° ENE 01:16:28 10° NNW
SL-14 R/B 4.4 01:27:34 37° ENE 01:27:34 37° ENE 01:30:33 10° NNE
Cosmos 540 Rocket 3.3 01:23:31 10° NNW 01:28:42 75° WSW 01:28:52 74° SW
CZ-2C R/B 3.2 01:31:01 62° SSE 01:32:03 86° ENE 01:37:51 10° NNW
Cosmos 2151 3.5 01:34:00 51° WNW 01:34:00 51° WNW 01:37:47 10° N
Cosmos 1328 4.4 01:36:37 53° NW 01:36:37 53° NW 01:39:57 10° N
Cosmos 1805 Rocket 3.5 01:36:22 81° NNW 01:36:22 81° NNW 01:40:38 10° N
Cosmos 1980 Rocket 2.1 01:31:05 10° NNW 01:36:42 71° WSW 01:37:17 66° SSW
Cosmos 2360 Rocket 4.5 01:32:48 10° N 01:36:55 20° NE 01:41:01 10° E
Cosmos 1633 Rocket 3.2 01:41:33 64° E 01:41:33 64° E 01:45:54 10° NNE
Cosmos 332 Rocket 3.7 01:38:52 10° NNW 01:43:36 74° W 01:43:36 74° W
Cosmos 1437 4.2 01:45:44 39° N 01:45:44 39° N 01:47:56 10° N
Cosmos 1151 Rocket 4.5 01:41:16 10° NNW 01:44:10 26° WNW 01:44:10 26° WNW
SL-08 R/B 4.4 01:43:32 56° S 01:44:56 84° E 01:51:06 10° N
PSLV R/B 4.4 01:42:25 10° NNE 01:46:42 40° E 01:46:56 40° ESE
Cosmos 1300 3.2 01:44:01 10° N 01:47:07 55° NNW 01:47:07 55° NNW
ISS -1.0 01:44:58 10° NW 01:46:06 19° NW 01:46:06 19° NW
Cosmos 1707 Rocket 3.7 01:46:14 10° NNW 01:50:12 62° WNW 01:50:12 62° WNW
Cosmos 2344 4.5 01:45:49 19° WSW 01:51:23 48° NW 02:00:13 10° NNE
Aureole 1 Rocket 4.2 01:46:36 10° NW 01:51:26 43° WSW 01:51:38 43° WSW
Cosmos 1666 Rocket 3.5 01:54:02 74° WNW 01:54:02 74° WNW 01:58:14 10° N
Cosmos 1697 Rocket 3.7 01:50:11 10° NW 01:54:45 30° W 01:54:45 30° W
Cosmos 1726 2.7 01:51:28 10° N 01:54:26 55° NNW 01:54:26 55° NNW
Cosmos 2242 Rocket 3.4 01:52:44 10° N 01:57:09 85° E 01:57:15 84° ESE
Meteor 1-11 4.2 01:57:16 56° SSW 01:58:31 77° W 02:04:22 10° N
ATLAS 5 CENTAUR R/B 2.7 02:00:28 36° SE 02:00:47 36° ESE 02:05:30 10° NE
Cosmos 2082 Rocket 4.0 01:58:28 15° W 02:01:24 22° NW 02:05:49 10° N
Cosmos 1833 Rocket 4.2 01:59:06 20° W 02:01:32 27° NW 02:06:19 10° N
Cosmos 1470 Rocket 3.9 02:04:26 53° ESE 02:04:53 56° E 02:09:12 10° NNE
CENTAUR R/B 3.3 02:03:52 27° WSW 02:07:03 47° NW 02:13:46 10° NNE
Cosmos 1933 Rocket 3.8 02:08:34 56° SE 02:09:02 59° E 02:13:23 10° NNE
SL-08 R/B 4.5 02:09:01 22° SE 02:11:38 41° ENE 02:16:15 10° N
Cosmos 1455 2.9 02:10:58 10° N 02:14:37 46° ENE 02:15:01 44° E
Lacrosse 5 rocket 2.0 02:10:23 10° NW 02:13:42 47° W 02:13:42 47° W
ASTEX 1 3.9 02:10:46 10° N 02:15:29 45° WNW 02:16:09 43° WSW
Sich 1 3.4 02:16:15 49° W 02:16:26 49° WNW 02:20:45 10° N
Cosmos 1626 2.8 02:18:21 46° ESE 02:18:29 46° E 02:22:06 10° NNE
Cosmos 968 Rocket 3.7 02:19:56 47° WSW 02:21:00 57° WNW 02:26:06 10° NNE
CZ-2C R/B 4.1 02:18:18 10° N 02:22:46 26° WNW 02:24:34 22° W
Landsat 4 3.7 02:24:57 66° WNW 02:24:57 66° WNW 02:28:23 10° NNW
Cosmos 1386 Rocket 4.5 02:27:54 43° SSW 02:29:59 69° W 02:36:06 10° N
Cosmos 371 Rocket 4.0 02:28:35 10° NW 02:32:53 36° W 02:32:53 36° W
Cosmos 1346 4.3 02:37:22 35° E 02:37:22 35° E 02:40:08 10° NNE
Cosmos 304 Rocket 4.0 02:32:52 10° NNW 02:37:42 68° ENE 02:40:21 26° SE
ATLAS CENTAUR R/B 3.3 02:35:42 10° NNW 02:39:59 33° NE 02:43:59 10° ESE
USA 161 3.6 02:43:22 18° E 02:43:35 18° ENE 02:45:21 10° NNE
SL-16 R/B 2.3 02:38:35 10° NNW 02:44:07 53° WSW 02:45:44 40° SSW
USA 229 DEB 4.4 02:40:56 26° SSE 02:44:16 42° ESE 02:50:46 10° NE
USA 229 4.5 02:41:02 26° SSE 02:44:24 42° ESE 02:50:52 10° NE
Cosmos 1862 Rocket 3.5 02:39:58 10° NNW 02:44:26 66° W 02:45:14 53° SSW
Cosmos 2322 Rocket 2.6 02:48:07 10° NW 02:53:21 41° WSW 02:54:31 36° SW
Meteor 1-4 Rocket 3.4 02:50:43 10° NNW 02:54:04 38° W 02:54:04 38° W
CZ-2D R/B 3.9 02:52:28 10° NE 02:56:49 25° E 03:01:11 10° SSE
Cosmos 1709 Rocket 4.0 02:55:55 33° SSW 02:58:50 68° W 03:05:04 10° N
ATLAS 2A CENTAUR R/B 4.4 02:56:25 19° S 03:00:21 26° SE 03:20:45 10° E
Cosmos 923 Rocket 4.3 03:00:08 10° NNW 03:05:08 45° WSW 03:06:44 35° SSW
SL-16 R/B 3.4 03:00:51 10° SE 03:06:50 49° ENE 03:12:50 10° N
ERS-2 2.8 03:05:17 10° N 03:08:47 41° WNW 03:09:29 36° W
Cosmos 2298 Rocket 4.3 03:06:07 27° S 03:08:58 61° ESE 03:14:14 10° NNE
Cosmos 1271 Rocket 4.0 03:06:30 10° NW 03:09:21 25° W 03:09:21 25° W
AQUA 3.9 03:05:35 10° N 03:10:19 68° WNW 03:12:19 34° SW
Cosmos 1869 Rocket 3.7 03:08:33 30° S 03:10:40 71° E 03:15:06 10° NNE
Spot 4 Rocket 4.1 03:07:33 10° NNE 03:12:42 72° ESE 03:15:44 25° S
Cosmos 1680 Rocket 3.7 03:07:41 10° NNW 03:12:44 51° WSW 03:15:02 30° SSW
NPP 3.9 03:08:42 10° N 03:13:58 56° WNW 03:16:33 29° SW
Cosmos 1869 4.0 03:11:18 10° NNW 03:14:58 36° W 03:15:32 34° WSW
Cosmos 2292 Rocket 3.5 03:18:17 39° WSW 03:18:56 44° WNW 03:22:46 10° N
Cosmos 2221 Rocket 3.6 03:16:32 10° NNW 03:21:04 72° W 03:23:36 26° S
Cosmos 2360 Rocket 2.1 03:15:51 10° NNW 03:21:27 68° WSW 03:26:51 11° SSE
USA 215 3.2 03:18:31 10° NE 03:25:06 87° SE 03:29:34 22° SW
CBERS-1 4.4 03:20:36 10° N 03:25:33 51° WNW 03:28:11 26° SW
Cosmos 2227 Rocket 4.3 03:23:53 10° SE 03:27:51 20° E 03:31:49 10° NE
ARIANE 5 R/B 2.6 03:26:41 10° NNE 03:31:47 75° ESE 03:35:28 18° S
IRS-1C 4.4 03:27:32 10° N 03:32:45 55° WNW 03:35:54 23° SW
EO 1 Del DPAF 3.3 03:29:57 14° SSE 03:33:18 81° ENE 03:37:13 10° N
OE (NEXTSAT) 4.4 03:33:56 34° SW 03:35:19 67° SSE 03:38:54 10° ENE
Resurs 1-4 Rocket 2.6 03:30:49 10° NNE 03:36:05 59° E 03:40:52 12° S
Cosmos 1733 Rocket 4.3 03:35:49 10° SSE 03:39:49 38° E 03:43:53 10° NNE
Cosmos 1703 Rocket 4.0 03:36:03 10° NNW 03:40:08 41° W 03:42:13 24° SSW
Cosmos 1898 Rocket 3.4 03:37:54 22° SSW 03:41:19 83° WNW 03:46:32 10° NNE
IRS-1D 3.6 03:36:42 10° NNE 03:42:04 83° ESE 03:46:22 16° SSW
Cosmos 1937 Rocket 3.7 03:39:01 18° S 03:43:00 74° ESE 03:48:18 10° NNE
Cosmos 2219 3.2 03:41:17 21° SSW 03:45:14 77° WNW 03:51:02 10° NNE
SL-23 DEB 4.0 03:42:18 10° NW 03:45:26 64° NNE 03:49:31 10° ESE
ATLAS 5 CENTAUR R/B 3.1 03:42:01 16° WSW 03:45:28 34° NW 03:50:20 10° NNE
Cosmos 2322 4.1 03:41:10 10° NW 03:46:34 43° WSW 03:51:51 10° S
H-2A ROCKET BODY 3.5 03:50:07 12° S 03:50:07 12° S 03:50:26 10° S
Cosmos 1455 4.4 03:48:47 10° WNW 03:49:53 11° W 03:50:02 11° W
Okean 1-7 3.3 03:46:54 10° NNW 03:51:10 51° W 03:54:23 16° SSW
Abrixas 3.6 03:50:28 10° NW 03:53:29 48° NNE 03:56:29 10° E
Coronas F rocket 4.1 03:51:41 10° SE 03:53:36 17° E 03:55:31 10° NE
Cosmos 1626 4.4 03:53:04 10° W 03:54:12 12° WNW 03:55:35 10° NW
SL-08 ROCKET BODY 4.5 03:50:22 15° SSW 03:55:22 67° W 04:01:32 10° N
Cosmos 2297 Rocket 4.1 03:55:38 10° SSE 04:00:11 26° ESE 04:04:45 10° NE
Cosmos 389 Rocket 2.5 03:57:36 10° N 04:01:19 88° WSW 04:04:59 10° S
ADEOS 4.5 03:57:01 10° N 04:01:43 35° WNW 04:05:24 15° SW
Meteor 1-26 Rocket 4.4 03:56:55 10° NNW 04:02:15 50° W 04:07:32 10° SSW
Cosmos 1782 4.1 03:59:51 10° N 04:03:41 42° ENE 04:07:28 10° SSE
USA 129 1.7 04:06:13 34° WNW 04:06:13 34° WNW 04:07:22 10° NNW
NOSS 3-1 (C) 4.1 04:01:33 10° SSW 04:07:08 51° ESE 04:13:18 10° NE
IRS-1C Rocket 4.5 04:03:20 10° NNE 04:08:35 64° ESE 04:13:48 10° S
Cosmos 2341 Rocket 4.3 04:02:23 10° S 04:08:40 75° E 04:15:03 10° N
Cosmos 2333 Rocket 3.0 04:04:52 10° NNW 04:10:31 57° ENE 04:16:08 10° SE
Nadezhda 3 Rocket 4.0 04:06:17 10° N 04:12:29 83° W 04:18:37 10° S
Sich 1 Rocket 4.2 04:09:41 10° S 04:13:57 55° E 04:18:15 10° NNE
SWAS 4.4 04:10:52 10° NNW 04:15:10 74° WSW 04:19:27 10° SSE
Cosmos 1892 2.7 04:11:34 10° S 04:15:27 83° W 04:19:19 10° N
ATLAS CENTAUR R/B 2.3 04:15:01 10° NW 04:19:02 30° WSW 04:22:45 10° S
Cosmos 2154 Rocket 4.1 04:12:56 10° SSW 04:19:15 74° W 04:25:38 10° N
CZ-4B R/B 4.2 04:16:46 10° NNE 04:20:42 41° E 04:24:48 10° S
COSMOS 2428 3.0 04:15:38 10° NW 04:21:01 45° WSW 04:26:22 10° S
Cosmos 1674 Rocket 3.5 04:18:16 10° N 04:22:36 89° WNW 04:26:57 10° S
Cosmos 1340 Rocket 3.0 04:19:34 10° S 04:23:35 73° E 04:27:34 10° NNE
GPS 2-05 Rocket1 4.5 04:23:51 13° SW 04:25:14 16° SSW 04:27:24 10° SSE
SME Rocket 3.6 04:20:47 10° S 04:26:53 64° WSW 04:31:12 10° NNW
CZ-2C R/B 3.7 04:23:09 10° S 04:27:39 77° WSW 04:32:16 10° NNW
Cosmos 2237 Rocket 2.6 04:24:50 10° NNW 04:30:32 72° ENE 04:36:13 10° SSE
USA 229 DEB 4.4 04:28:36 10° WSW 04:35:13 45° NW 04:41:54 10° NNE
USA 229 4.4 04:28:41 10° WSW 04:35:18 45° NW 04:42:01 10° NNE
CZ-2D R/B 2.7 04:32:06 10° N 04:37:01 41° WNW 04:41:58 10° SW
AVUM R/B 3.5 04:35:27 11° WSW 04:37:09 26° WNW 04:39:04 10° N
Okean O Rocket 1.6 04:32:43 10° N 04:37:09 76° WNW 04:41:32 10° SSW
Cosmos 990 Rocket 4.4 04:35:36 10° SW 04:40:36 49° WNW 04:45:36 10° N
Cosmos 2219 Rocket 2.2 04:35:46 10° NNW 04:41:18 63° WSW 04:46:47 10° S
Cosmos 1356 Rocket 3.4 04:38:57 10° S 04:43:01 88° ESE 04:47:04 10° N
UNKNOWN OBJECT B 3.7 04:39:57 10° N 04:43:26 33° WNW 04:46:57 10° SW
Intercosmos 24 Rocket 4.1 04:39:49 10° SSW 04:43:29 75° W 04:47:07 10° N
CZ-2D R/B 3.8 04:39:34 10° N 04:43:34 49° WNW 04:47:26 10° SSW
Meteor 2-10 Rocket 3.8 04:41:39 10° NNW 04:46:31 47° W 04:51:31 10° SSW
